Location: *
(46.1200°N, 11.2700°E)
Time: 08:46:32
(UTC+00:00)

CZ-2C R/B - Pass Details

Date: 02 March 2021
Orbit: 783 x 871 km, 98.2° (Epoch: 19 April)

Event Time Altitude Azimuth Distance (km) Brightness Sun altitude
Rises 18:19:01 0° 15° (NNE) 3,437 5.8 -14.0°
Reaches altitude 10° 18:21:26 10° 17° (NNE) 2,485 5.0 -14.4°
Maximum altitude 18:26:57 74° 102° (ESE) 872 2.6 -15.4°
Drops below altitude 10° 18:32:18 10° 188° (S) 2,410 5.1 -16.3°
Sets 18:34:37 0° 190° (S) 3,325 5.8 -16.7°
